• In Schweiz
  • Länderverzeichnis
  • Für 7 Tage
  • Wassertemperatur
  • Satellitenkarten
  • Wetterkarte
  • Widgets
  • user-avatar
    Anmelden

    Stündliche Wetter Sydney

    Heute, 26 Mai, Samstag

    Zeit Temperatur Niederschläge Wind Luftdruck Luftfeuchtigkeit
    00:00 +13°C° 0 mm 1 m/S 771 mmHg 93%
    01:00 +12°C° 0 mm 1 m/S 771 mmHg 94%
    02:00 +12°C° 0 mm 1 m/S 771 mmHg 94%
    03:00 +12°C° 0 mm 1 m/S 771 mmHg 95%
    04:00 +10°C° 0 mm 2 m/S 771 mmHg 95%
    05:00 +10°C° 0 mm 2 m/S 771 mmHg 94%
    06:00 +10°C° 0 mm 2 m/S 771 mmHg 94%
    07:00 +10°C° 0 mm 2 m/S 771 mmHg 94%
    08:00 +13°C° 0 mm 2 m/S 771 mmHg 82%
    09:00 +16°C° 0 mm 1 m/S 771 mmHg 70%
    10:00 +20°C° 0 mm 1 m/S 771 mmHg 58%
    11:00 +21°C° 0 mm 1 m/S 771 mmHg 54%
    12:00 +21°C° 0 mm 2 m/S 770 mmHg 51%
    13:00 +23°C° 0 mm 2 m/S 770 mmHg 47%
    14:00 +23°C° 0 mm 2 m/S 770 mmHg 49%
    15:00 +21°C° 0 mm 3 m/S 770 mmHg 51%
    16:00 +21°C° 0 mm 3 m/S 769 mmHg 54%
    17:00 +19°C° 0 mm 3 m/S 770 mmHg 64%
    18:00 +17°C° 0 mm 4 m/S 770 mmHg 73%
    19:00 +14°C° 0 mm 4 m/S 770 mmHg 83%
    20:00 +14°C° 0 mm 3 m/S 770 mmHg 86%
    21:00 +13°C° 0 mm 3 m/S 771 mmHg 88%
    22:00 +13°C° 0 mm 3 m/S 771 mmHg 91%
    23:00 +12°C° 0 mm 3 m/S 771 mmHg 92%

    Morgen, 27 Mai, Sonntag

    Zeit Temperatur Niederschläge Wind Luftdruck Luftfeuchtigkeit
    00:00 +12°C° 0 mm 3 m/S 771 mmHg 92%
    01:00 +11°C° 0 mm 3 m/S 770 mmHg 93%
    02:00 +11°C° 0 mm 3 m/S 770 mmHg 93%
    03:00 +11°C° 0 mm 3 m/S 770 mmHg 92%
    04:00 +10°C° 0 mm 2 m/S 770 mmHg 92%
    05:00 +10°C° 0 mm 2 m/S 770 mmHg 91%
    06:00 +10°C° 0 mm 2 m/S 770 mmHg 91%
    07:00 +10°C° 0 mm 2 m/S 770 mmHg 90%
    08:00 +14°C° 0 mm 2 m/S 770 mmHg 78%
    09:00 +16°C° 0 mm 2 m/S 770 mmHg 66%
    10:00 +19°C° 0 mm 2 m/S 771 mmHg 54%
    11:00 +20°C° 0 mm 2 m/S 770 mmHg 49%
    12:00 +22°C° 0 mm 3 m/S 769 mmHg 44%
    13:00 +24°C° 0 mm 3 m/S 769 mmHg 39%
    14:00 +22°C° 0 mm 3 m/S 768 mmHg 42%
    15:00 +21°C° 0 mm 3 m/S 768 mmHg 45%
    16:00 +21°C° 0 mm 4 m/S 768 mmHg 48%
    17:00 +19°C° 0 mm 4 m/S 768 mmHg 56%
    18:00 +17°C° 0 mm 4 m/S 769 mmHg 65%
    19:00 +14°C° 0 mm 4 m/S 769 mmHg 74%
    20:00 +14°C° 0 mm 3 m/S 769 mmHg 76%
    21:00 +14°C° 0 mm 3 m/S 770 mmHg 78%
    22:00 +13°C° 0 mm 3 m/S 770 mmHg 79%
    23:00 +13°C° 0 mm 3 m/S 770 mmHg 80%

    übermorgen, 28 Mai, Montag

    Zeit Temperatur Niederschläge Wind Luftdruck Luftfeuchtigkeit
    00:00 +13°C° 0 mm 3 m/S 769 mmHg 81%
    01:00 +14°C° 0 mm 2 m/S 769 mmHg 82%
    02:00 +13°C° 0 mm 2 m/S 769 mmHg 83%
    03:00 +13°C° 0 mm 2 m/S 769 mmHg 84%
    04:00 +12°C° 0 mm 2 m/S 769 mmHg 86%
    05:00 +12°C° 0 mm 2 m/S 769 mmHg 86%
    06:00 +12°C° 0 mm 2 m/S 769 mmHg 86%
    07:00 +12°C° 0 mm 2 m/S 769 mmHg 86%
    08:00 +14°C° 0 mm 2 m/S 769 mmHg 76%
    09:00 +16°C° 0 mm 2 m/S 769 mmHg 66%
    10:00 +19°C° 0 mm 2 m/S 769 mmHg 57%
    11:00 +20°C° 0 mm 2 m/S 768 mmHg 51%
    12:00 +21°C° 0 mm 2 m/S 768 mmHg 46%
    13:00 +22°C° 0 mm 3 m/S 767 mmHg 40%
    14:00 +22°C° 0 mm 3 m/S 767 mmHg 42%
    15:00 +21°C° 0 mm 3 m/S 767 mmHg 44%
    16:00 +20°C° 0 mm 3 m/S 766 mmHg 46%
    17:00 +19°C° 0 mm 3 m/S 767 mmHg 55%
    18:00 +17°C° 0 mm 3 m/S 767 mmHg 64%
    19:00 +14°C° 0 mm 3 m/S 767 mmHg 72%
    20:00 +14°C° 0 mm 3 m/S 767 mmHg 74%
    21:00 +13°C° 0 mm 3 m/S 767 mmHg 76%
    22:00 +12°C° 0 mm 3 m/S 767 mmHg 78%
    23:00 +12°C° 0 mm 3 m/S 767 mmHg 77%

    29 Mai, Dienstag

    Zeit Temperatur Niederschläge Wind Luftdruck Luftfeuchtigkeit
    00:00 +12°C° 0 mm 3 m/S 767 mmHg 77%
    01:00 +11°C° 0 mm 3 m/S 767 mmHg 77%
    02:00 +11°C° 0 mm 3 m/S 766 mmHg 75%
    03:00 +10°C° 0 mm 2 m/S 766 mmHg 72%
    04:00 +10°C° 0 mm 2 m/S 766 mmHg 70%
    05:00 +10°C° 0 mm 2 m/S 766 mmHg 68%
    06:00 +10°C° 0 mm 2 m/S 766 mmHg 65%
    07:00 +10°C° 0 mm 2 m/S 766 mmHg 63%
    08:00 +14°C° 0 mm 2 m/S 766 mmHg 55%
    09:00 +17°C° 0 mm 2 m/S 766 mmHg 47%
    10:00 +20°C° 0 mm 2 m/S 765 mmHg 40%
    11:00 +23°C° 0 mm 2 m/S 765 mmHg 37%
    12:00 +24°C° 0 mm 2 m/S 764 mmHg 34%
    13:00 +26°C° 0 mm 2 m/S 763 mmHg 31%
    14:00 +25°C° 0 mm 2 m/S 763 mmHg 35%
    15:00 +24°C° 0 mm 3 m/S 762 mmHg 38%
    16:00 +23°C° 0 mm 4 m/S 762 mmHg 41%
    17:00 +21°C° 0 mm 4 m/S 762 mmHg 47%
    18:00 +19°C° 0 mm 4 m/S 762 mmHg 52%
    19:00 +18°C° 0 mm 4 m/S 763 mmHg 57%
    20:00 +17°C° 0 mm 4 m/S 763 mmHg 59%
    21:00 +17°C° 0 mm 4 m/S 763 mmHg 60%
    22:00 +15°C° 0 mm 4 m/S 763 mmHg 61%
    23:00 +15°C° 0,2 mm 4 m/S 762 mmHg 65%

    30 Mai, Mittwoch

    Zeit Temperatur Niederschläge Wind Luftdruck Luftfeuchtigkeit
    00:00 +15°C° 0,2 mm 4 m/S 762 mmHg 69%
    01:00 +14°C° 0,2 mm 4 m/S 761 mmHg 73%
    02:00 +14°C° 0,5 mm 4 m/S 762 mmHg 77%
    03:00 +14°C° 0,5 mm 5 m/S 762 mmHg 80%
    04:00 +14°C° 0,5 mm 5 m/S 762 mmHg 84%
    05:00 +13°C° 0,1 mm 5 m/S 762 mmHg 83%
    06:00 +11°C° 0,1 mm 6 m/S 763 mmHg 81%
    07:00 +10°C° 0,1 mm 6 m/S 764 mmHg 80%
    08:00 +11°C° 0 mm 7 m/S 764 mmHg 70%
    09:00 +12°C° 0 mm 7 m/S 765 mmHg 59%
    10:00 +15°C° 0 mm 8 m/S 765 mmHg 49%
    11:00 +15°C° 0 mm 8 m/S 765 mmHg 45%
    12:00 +16°C° 0 mm 8 m/S 765 mmHg 41%
    13:00 +17°C° 0 mm 8 m/S 765 mmHg 37%
    14:00 +17°C° 0 mm 7 m/S 765 mmHg 37%
    15:00 +16°C° 0 mm 6 m/S 765 mmHg 37%
    16:00 +16°C° 0 mm 6 m/S 765 mmHg 37%
    17:00 +15°C° 0 mm 5 m/S 766 mmHg 41%
    18:00 +13°C° 0 mm 5 m/S 766 mmHg 45%
    19:00 +12°C° 0 mm 4 m/S 767 mmHg 49%
    20:00 +10°C° 0 mm 5 m/S 767 mmHg 50%
    21:00 +9°C° 0 mm 5 m/S 767 mmHg 52%
    22:00 +9°C° 0 mm 5 m/S 767 mmHg 53%
    23:00 +8°C° 0 mm 5 m/S 767 mmHg 54%

    31 Mai, Donnerstag

    Zeit Temperatur Niederschläge Wind Luftdruck Luftfeuchtigkeit
    00:00 +8°C° 0 mm 6 m/S 767 mmHg 56%
    01:00 +7°C° 0 mm 6 m/S 767 mmHg 57%
    02:00 +7°C° 0 mm 6 m/S 767 mmHg 58%
    03:00 +7°C° 0 mm 6 m/S 766 mmHg 58%
    04:00 +8°C° 0 mm 6 m/S 766 mmHg 59%
    05:00 +8°C° 0 mm 6 m/S 766 mmHg 61%
    06:00 +7°C° 0 mm 6 m/S 766 mmHg 64%
    07:00 +7°C° 0 mm 6 m/S 766 mmHg 66%
    08:00 +10°C° 0 mm 6 m/S 766 mmHg 59%
    09:00 +12°C° 0 mm 7 m/S 766 mmHg 52%
    10:00 +15°C° 0 mm 7 m/S 766 mmHg 45%
    11:00 +16°C° 0 mm 7 m/S 765 mmHg 42%
    12:00 +16°C° 0 mm 7 m/S 764 mmHg 39%
    13:00 +17°C° 0 mm 6 m/S 764 mmHg 37%
    14:00 +16°C° 0 mm 7 m/S 764 mmHg 39%
    15:00 +15°C° 0 mm 7 m/S 763 mmHg 40%
    16:00 +15°C° 0 mm 7 m/S 763 mmHg 42%
    17:00 +12°C° 0 mm 7 m/S 763 mmHg 46%
    18:00 +11°C° 0 mm 7 m/S 764 mmHg 49%
    19:00 +10°C° 0 mm 7 m/S 764 mmHg 53%
    20:00 +10°C° 0 mm 7 m/S 764 mmHg 54%
    21:00 +9°C° 0 mm 7 m/S 764 mmHg 55%
    22:00 +9°C° 0 mm 8 m/S 764 mmHg 55%
    23:00 +9°C° 0 mm 7 m/S 764 mmHg 56%
    Mehr zeigen